Location: Roland
(31.1349°N, 85.4372°W)
Time: 04:56:20
(UTC+00:00)

Courier 1B - Pass Details

Date: 27 April 2021
Orbit: 962 x 1209 km, 28.3° (Epoch: 07 May)

Event Time Altitude Azimuth Distance (km) Brightness Sun altitude
Rises 18:15:29 0° 271° (W) 3,831 10.7 71.0°
Reaches altitude 10° 18:18:17 10° 269° (W) 2,839 10.2 70.7°
Maximum altitude 18:25:04 64° 189° (S) 1,092 10.2 70.0°
Drops below altitude 10° 18:31:32 10° 109° (ESE) 2,705 9.9 69.2°
Sets 18:34:09 0° 106° (ESE) 3,639 10.4 68.8°
